Regional Weather Roundup
Issued by NWS

Home | Current Version | Previous Version | Text Only | Print | Product List | Glossary On
Versions: 1 2 3 4 5 6 7 8 9 10 11 12 13 14 15 16 17 18 19 20 21 22 23 24 25 26 27 28 29 30 31 32 33 34 35 36 37 38 39 40 41 42 43 44 45 46 47 48 49 50
000
ASUS42 KKEY 020310
RWRKEY

FLORIDA REGIONAL WEATHER ROUNDUP FOR THE FLORIDA KEYS
NATIONAL WEATHER SERVICE KEY WEST FLORIDA
1100 PM EDT SAT AUG 01 2015

...SOUTH FLORIDA AND THE KEYS...

CITY           SKY/WX    TMP DP  RH WIND       PRES   REMARKS
FORT MYERS     CLOUDY    83  77  82 S3        29.98R HX  92
SW REGIONAL AP CLOUDY    83  78  85 SW5       29.99R HX  93
NAPLES         CLOUDY    86  78  77 S3        29.99R HX  98
MIAMI          CLOUDY    85  75  72 VRB3      30.01S HX  93
WEST KENDALL   CLOUDY    84  75  74 S3        30.01R HX  92
HOMESTEAD      CLOUDY    83  75  76 S2        30.01R HX  90
MARATHON       CLOUDY    86  77  74 SE7       30.00R HX  97
BOCA CHICA NAS CLOUDY    85  74  69 SE8       30.01R HX  92
KEY WEST INTL  CLOUDY    86  76  71 SE8       30.01R HX  96

...INTERNATIONAL WEATHER...

CITY           SKY/WX    TMP DP  RH WIND       PRES   REMARKS
NASSAU BAHAMAS PTCLDY    84  79  84 SE3       30.05R HX  96
CANCUN MEXICO  PTCLDY    82  77  83 E7        29.98R HX  91
COZUMEL MEXICO PTCLDY    75  73  94 CALM      29.98R

ADJACENT COASTAL WATERS...

STATION/POSITION TIME  SKY/WX   TEMP    WIND        PRES    WAVE
                                AIR SEA DIR/SP/G            HT/PER
                 (UTC)          (F)     (DEG/KT/KT) (MB)    (FT/S)
PULASKI SHOAL LI 0200            85      CALM  /  1 1015.5R
SAND KEY         0250            85     150/  8/ 10 1016.2R
SOMBRERO KEY     0300            85     130/ 16/ 17 1016.6R
LONG KEY         0300            86 89  150/ 13/ 14 1016.9R
MOLASSES REEF    0300            85 87  120/  6/  7 1016.4R
FOWEY ROCKS      NOT AVBL

$$



USA.gov is the U.S. government's official web portal to all federal, state and local government web resources and services.